DW6178 Weather Reports


Display with metric or nautical units.
time (UTC)temp
F
wind
direction
speed
MPH
gust
MPH
rain 1hr
in
rain 24hr
in
rain mn
in
humidity
%
barometer
mb
20260508154541 65 264 2.0 4.0 0.00 0.00 0.00 33 1012.1
20260508153044 64 300 0.0 4.0 0.00 0.00 0.00 35 1012.2
20260508151517 63 295 1.0 4.0 0.00 0.00 0.00 35 1012.2
20260508150015 63 293 1.0 5.0 0.00 0.00 0.00 35 1012.1
20260508144554 62 297 1.0 4.0 0.00 0.00 0.00 34 1012.0
20260508143054 62 301 1.0 5.0 0.00 0.00 0.00 34 1012.0
20260508141530 61 301 1.0 4.0 0.00 0.00 0.00 33 1011.9
20260508140034 61 315 1.0 4.0 0.00 0.00 0.00 32 1011.9
20260508134514 61 295 1.0 5.0 0.00 0.00 0.00 31 1011.8
20260508133013 61 288 1.0 4.0 0.00 0.00 0.00 31 1011.7
20260508131613 61 300 1.0 6.0 0.00 0.00 0.00 30 1011.6
20260508130050 61 298 1.0 6.0 0.00 0.00 0.00 28 1011.5
20260508124550 61 294 0.0 3.0 0.00 0.00 0.00 28 1011.5
20260508123043 61 329 0.0 3.0 0.00 0.00 0.00 27 1011.3
20260508121532 61 304 1.0 3.0 0.00 0.00 0.00 27 1011.2
20260508120014 61 302 0.0 3.0 0.00 0.00 0.00 27 1011.3
20260508114513 61 300 1.0 2.0 0.00 0.00 0.00 27 1011.2
20260508113056 62 317 1.0 3.0 0.00 0.00 0.00 27 1011.3
20260508111601 62 338 1.0 3.0 0.00 0.00 0.00 28 1011.2
20260508110040 62 294 1.0 3.0 0.00 0.00 0.00 29 1011.4
20260508104535 61 308 0.0 2.0 0.00 0.00 0.00 30 1011.5
20260508103018 61 283 0.0 3.0 0.00 0.00 0.00 31 1011.5
20260508101512 61 315 1.0 5.0 0.00 0.00 0.00 36 1011.5
20260508100054 62 311 1.0 3.0 0.00 0.00 0.00 35 1011.5
20260508094605 62 297 0.0 3.0 0.00 0.00 0.00 37 1011.6
20260508093034 61 267 1.0 3.0 0.00 0.00 0.00 41 1011.6
20260508091533 61 307 1.0 3.0 0.00 0.00 0.00 38 1011.7
20260508090022 61 278 1.0 4.0 0.00 0.00 0.00 36 1011.8
20260508084512 61 298 1.0 3.0 0.00 0.00 0.00 37 1012.0
20260508083100 61 323 1.0 3.0 0.00 0.00 0.00 39 1012.1
20260508081606 61 304 0.0 2.0 0.00 0.00 0.00 39 1012.4
20260508080032 61 290 0.0 3.0 0.00 0.00 0.00 44 1012.5
20260508074530 61 288 0.0 3.0 0.00 0.00 0.00 44 1012.6
20260508073011 61 298 2.0 4.0 0.00 0.00 0.00 39 1012.7
20260508071512 61 297 2.0 4.0 0.00 0.00 0.00 38 1012.7
20260508070054 62 284 2.0 5.0 0.00 0.00 0.00 33 1012.7
20260508064548 61 287 2.0 6.0 0.00 0.00 0.00 34 1012.8
20260508063030 62 293 3.0 4.0 0.00 0.00 0.00 37 1012.9
20260508061530 62 287 3.0 6.0 0.00 0.00 0.00 30 1013.0
20260508060011 61 290 2.0 5.0 0.00 0.00 0.00 31 1013.0
20260508054510 61 293 2.0 5.0 0.00 0.00 0.00 31 1013.1
20260508053057 61 295 3.0 5.0 0.00 0.00 0.00 34 1013.1
20260508051551 61 292 3.0 5.0 0.00 0.00 0.00 34 1013.2
20260508050034 61 288 2.0 6.0 0.00 0.00 0.00 35 1013.3
20260508044537 61 288 2.0 5.0 0.00 0.00 0.00 35 1013.3
20260508043018 61 290 2.0 5.0 0.00 0.00 0.00 37 1013.2
20260508041514 60 295 2.0 4.0 0.00 0.00 0.00 38 1013.0
20260508040104 60 276 1.0 3.0 0.00 0.00 0.00 42 1012.7
20260508034558 60 301 1.0 3.0 0.00 0.00 0.00 44 1012.5
20260508033038 60 302 1.0 4.0 0.00 0.00 0.00 46 1012.5
20260508031538 60 290 1.0 3.0 0.00 0.00 0.00 53 1012.2
20260508030020 60 289 0.0 2.0 0.00 0.00 0.00 52 1012.2
20260508024521 60 293 0.0 2.0 0.00 0.00 0.00 54 1012.1
20260508023005 61 301 0.0 4.0 0.00 0.00 0.00 52 1012.1
20260508021504 62 295 1.0 3.0 0.00 0.00 0.00 50 1012.1
20260508020047 63 286 1.0 4.0 0.00 0.00 0.00 49 1012.0
20260508014546 63 301 1.0 3.0 0.00 0.00 0.00 48 1011.9
20260508013029 64 289 2.0 4.0 0.00 0.00 0.00 49 1011.9
20260508011539 65 291 2.0 4.0 0.00 0.00 0.00 49 1012.0
20260508010028 65 290 1.0 5.0 0.00 0.00 0.00 45 1012.1
20260508004531 65 276 1.0 5.0 0.00 0.00 0.00 44 1012.0
20260508003028 65 243 1.0 8.0 0.00 0.00 0.00 57 1012.0
20260508001526 65 243 2.0 5.0 0.00 0.00 0.00 58 1012.0
20260508000025 66 240 1.0 5.0 0.00 0.00 0.00 58 1012.1
20260507234523 66 198 2.0 7.0 0.00 0.00 0.00 42 1012.1
20260507233005 66 233 3.0 7.0 0.00 0.00 0.00 42 1012.1
20260507231504 66 212 3.0 7.0 0.00 0.00 0.00 48 1012.1
20260507230050 66 294 2.0 5.0 0.00 0.00 0.00 54 1012.1
20260507224545 66 194 2.0 6.0 0.00 0.00 0.00 60 1012.3
20260507223022 66 190 2.0 6.0 0.00 0.00 0.00 56 1012.5
20260507221519 66 245 2.0 7.0 0.00 0.00 0.00 57 1012.7
20260507220100 66 205 3.0 9.0 0.00 0.00 0.00 51 1013.0
20260507214600 68 215 3.0 6.0 0.00 0.00 0.00 53 1013.3
20260507213037 68 191 2.0 6.0 0.00 0.00 0.00 53 1013.5
20260507211536 68 188 3.0 7.0 0.00 0.00 0.00 53 1013.7
20260507210015 69 179 3.0 9.0 0.00 0.00 0.00 47 1013.9
20260507204512 69 211 3.0 8.0 0.00 0.00 0.00 47 1014.2
20260507203100 69 165 2.0 8.0 0.00 0.00 0.00 40 1014.2
20260507201549 69 225 3.0 8.0 0.00 0.00 0.00 47 1014.4
20260507200029 70 156 2.0 8.0 0.00 0.00 0.00 43 1014.6
20260507194520 70 218 2.0 8.0 0.00 0.00 0.00 35 1014.7
20260507193103 70 183 2.0 4.0 0.00 0.00 0.00 38 1014.9
20260507193001 70 204 1.0 5.0 0.00 0.00 0.00 37 1014.9
20260507191557 70 193 2.0 5.0 0.00 0.00 0.00 36 1015.1
20260507190035 70 186 2.0 6.0 0.00 0.00 0.00 29 1015.4
20260507184533 69 174 2.0 6.0 0.00 0.00 0.00 33 1015.5
20260507183028 68 184 1.0 5.0 0.00 0.00 0.00 30 1015.7
20260507181509 68 188 1.0 4.0 0.00 0.00 0.00 29 1015.9
20260507180048 67 165 1.0 4.0 0.00 0.00 0.00 36 1016.0
20260507174551 67 185 1.0 4.0 0.00 0.00 0.00 35 1016.1
20260507173026 66 212 0.0 3.0 0.00 0.00 0.00 34 1016.2
20260507171525 66 203 0.0 4.0 0.00 0.00 0.00 37 1016.2
20260507170007 66 145 0.0 3.0 0.00 0.00 0.00 36 1016.3
20260507164507 66 92 0.0 2.0 0.00 0.00 0.00 32 1016.4
20260507163047 65 239 0.0 2.0 0.00 0.00 0.00 33 1016.5
20260507161546 64 13 0.0 1.0 0.00 0.00 0.00 35 1016.5
20260507160034 63 326 0.0 1.0 0.00 0.00 0.00 37 1016.5